Вернуться в каталог

CZ-6A DEB

АктивенPO
NORAD 61089·DEBRIS·🇨🇳 China

Запущен Aug 6, 2024 с Taiyuan Satellite Launch Center

Loading…

Ближайшие Пролёты (ближайшие 24 часа)

TLE

СвежийSource: Space-Track

Эпоха: Sep 14, 2026, 07:38 UTC

1 61089U 24140NF  26257.31816717  .00000644  00000-0  31630-3 0  9991
2 61089  89.0573 270.8281 0064539 273.3277  86.0529 14.15582356105785

Отслеживайте CZ-6A DEB в реальном времени с AllMySat

Download on the App Store